When you browse on this site, cookies collect data to enhance your experience and personalize the content and advertising you see.
Visit our Privacy Policy to learn more. By continuing to use the site, you agree to this use of cookies and data.
  • în România
  • Lista ţărilor
  • Pe 7 zile
  • Temperatura apei
  • Hartă satelitară
  • Meteo pe hartă
  • Widget-uri
  • user-avatar
    Intrare

    Meteo pe oră la San Luis

    Astăzi, 22 Martie, Vineri

    Timp Temperatura Precipitaţii Vânt Presiune Umiditate
    00:00 +15°C° 0 mm 7 m/s 698 mmHg 59%
    01:00 +15°C° 0 mm 7 m/s 699 mmHg 60%
    02:00 +15°C° 0 mm 6 m/s 699 mmHg 60%
    03:00 +14°C° 0 mm 6 m/s 699 mmHg 63%
    04:00 +14°C° 0 mm 5 m/s 698 mmHg 65%
    05:00 +14°C° 0 mm 4 m/s 698 mmHg 68%
    06:00 +15°C° 0 mm 4 m/s 699 mmHg 63%
    07:00 +17°C° 0 mm 4 m/s 700 mmHg 59%
    08:00 +19°C° 0 mm 3 m/s 700 mmHg 54%
    09:00 +21°C° 0 mm 3 m/s 701 mmHg 48%
    10:00 +23°C° 0 mm 2 m/s 701 mmHg 42%
    11:00 +25°C° 0 mm 2 m/s 702 mmHg 36%
    12:00 +26°C° 0 mm 2 m/s 701 mmHg 33%
    13:00 +27°C° 0 mm 2 m/s 701 mmHg 31%
    14:00 +28°C° 0 mm 1 m/s 700 mmHg 29%
    15:00 +28°C° 0 mm 1 m/s 700 mmHg 28%
    16:00 +28°C° 0 mm 1 m/s 699 mmHg 28%
    17:00 +28°C° 0 mm 1 m/s 699 mmHg 28%
    18:00 +26°C° 0 mm 2 m/s 699 mmHg 35%
    19:00 +23°C° 0 mm 2 m/s 698 mmHg 42%
    20:00 +20°C° 0 mm 2 m/s 698 mmHg 48%
    21:00 +19°C° 0 mm 3 m/s 698 mmHg 51%
    22:00 +19°C° 0 mm 3 m/s 699 mmHg 53%
    23:00 +19°C° 0 mm 4 m/s 699 mmHg 56%

    Mâine, 23 Martie, Sâmbătă

    Timp Temperatura Precipitaţii Vânt Presiune Umiditate
    00:00 +19°C° 0 mm 5 m/s 699 mmHg 56%
    01:00 +19°C° 0 mm 5 m/s 698 mmHg 57%
    02:00 +19°C° 0 mm 6 m/s 698 mmHg 57%
    03:00 +18°C° 0 mm 7 m/s 698 mmHg 58%
    04:00 +18°C° 0 mm 7 m/s 698 mmHg 59%
    05:00 +18°C° 0 mm 7 m/s 697 mmHg 60%
    06:00 +20°C° 0 mm 8 m/s 698 mmHg 58%
    07:00 +21°C° 0 mm 8 m/s 698 mmHg 55%
    08:00 +22°C° 0 mm 8 m/s 699 mmHg 52%
    09:00 +24°C° 0 mm 8 m/s 699 mmHg 46%
    10:00 +27°C° 0 mm 7 m/s 699 mmHg 41%
    11:00 +29°C° 0 mm 7 m/s 700 mmHg 35%
    12:00 +30°C° 0 mm 6 m/s 699 mmHg 32%
    13:00 +32°C° 0 mm 4 m/s 699 mmHg 30%
    14:00 +31°C° 0 mm 3 m/s 699 mmHg 28%
    15:00 +31°C° 0 mm 3 m/s 698 mmHg 28%
    16:00 +31°C° 0 mm 2 m/s 698 mmHg 29%
    17:00 +31°C° 0 mm 2 m/s 698 mmHg 29%
    18:00 +28°C° 0 mm 2 m/s 698 mmHg 37%
    19:00 +25°C° 0 mm 1 m/s 698 mmHg 45%
    20:00 +22°C° 0 mm 1 m/s 698 mmHg 53%
    21:00 +21°C° 0 mm 2 m/s 698 mmHg 50%
    22:00 +21°C° 0 mm 3 m/s 699 mmHg 46%
    23:00 +21°C° 0 mm 3 m/s 700 mmHg 42%

    Poimâine, 24 Martie, Duminică

    Timp Temperatura Precipitaţii Vânt Presiune Umiditate
    00:00 +20°C° 0 mm 4 m/s 700 mmHg 42%
    01:00 +19°C° 0 mm 4 m/s 700 mmHg 41%
    02:00 +19°C° 0 mm 4 m/s 701 mmHg 40%
    03:00 +17°C° 0 mm 5 m/s 701 mmHg 39%
    04:00 +16°C° 0 mm 5 m/s 701 mmHg 38%
    05:00 +16°C° 0 mm 5 m/s 701 mmHg 38%
    06:00 +16°C° 0 mm 6 m/s 702 mmHg 35%
    07:00 +17°C° 0 mm 6 m/s 702 mmHg 32%
    08:00 +18°C° 0 mm 7 m/s 703 mmHg 29%
    09:00 +21°C° 0 mm 7 m/s 703 mmHg 27%
    10:00 +22°C° 0 mm 6 m/s 704 mmHg 24%
    11:00 +24°C° 0 mm 6 m/s 704 mmHg 22%
    12:00 +26°C° 0 mm 6 m/s 703 mmHg 22%
    13:00 +26°C° 0 mm 6 m/s 703 mmHg 22%
    14:00 +27°C° 0 mm 6 m/s 702 mmHg 22%
    15:00 +26°C° 0 mm 6 m/s 702 mmHg 23%
    16:00 +26°C° 0 mm 7 m/s 701 mmHg 24%
    17:00 +24°C° 0 mm 7 m/s 700 mmHg 25%
    18:00 +22°C° 0 mm 7 m/s 701 mmHg 28%
    19:00 +21°C° 0 mm 6 m/s 701 mmHg 32%
    20:00 +19°C° 0 mm 5 m/s 701 mmHg 35%
    21:00 +17°C° 0 mm 6 m/s 701 mmHg 35%
    22:00 +17°C° 0 mm 6 m/s 702 mmHg 36%
    23:00 +17°C° 0 mm 6 m/s 702 mmHg 37%

    25 Martie, Luni

    Timp Temperatura Precipitaţii Vânt Presiune Umiditate
    00:00 +16°C° 0 mm 6 m/s 702 mmHg 37%
    01:00 +16°C° 0 mm 6 m/s 701 mmHg 38%
    02:00 +16°C° 0 mm 6 m/s 701 mmHg 38%
    03:00 +15°C° 0 mm 5 m/s 701 mmHg 40%
    04:00 +15°C° 0 mm 5 m/s 701 mmHg 41%
    05:00 +15°C° 0 mm 5 m/s 701 mmHg 43%
    06:00 +15°C° 0 mm 5 m/s 701 mmHg 43%
    07:00 +16°C° 0 mm 5 m/s 702 mmHg 42%
    08:00 +17°C° 0 mm 5 m/s 702 mmHg 42%
    09:00 +20°C° 0 mm 4 m/s 703 mmHg 40%
    10:00 +22°C° 0 mm 4 m/s 703 mmHg 38%
    11:00 +25°C° 0 mm 3 m/s 703 mmHg 36%
    12:00 +25°C° 0 mm 3 m/s 702 mmHg 37%
    13:00 +25°C° 0 mm 3 m/s 702 mmHg 38%
    14:00 +25°C° 0 mm 3 m/s 701 mmHg 39%
    15:00 +25°C° 0 mm 3 m/s 701 mmHg 39%
    16:00 +25°C° 0 mm 3 m/s 700 mmHg 40%
    17:00 +25°C° 0 mm 3 m/s 700 mmHg 40%
    18:00 +22°C° 0 mm 4 m/s 700 mmHg 44%
    19:00 +21°C° 0 mm 5 m/s 701 mmHg 49%
    20:00 +19°C° 0 mm 6 m/s 701 mmHg 53%
    21:00 +19°C° 0 mm 5 m/s 701 mmHg 54%
    22:00 +17°C° 0 mm 5 m/s 702 mmHg 55%
    23:00 +18°C° 0 mm 4 m/s 702 mmHg 56%

    26 Martie, Marţi

    Timp Temperatura Precipitaţii Vânt Presiune Umiditate
    00:00 +18°C° 0 mm 4 m/s 702 mmHg 57%
    01:00 +18°C° 0 mm 4 m/s 702 mmHg 59%
    02:00 +17°C° 0 mm 4 m/s 702 mmHg 60%
    03:00 +17°C° 0 mm 4 m/s 702 mmHg 60%
    04:00 +17°C° 0 mm 4 m/s 702 mmHg 60%
    05:00 +15°C° 0 mm 4 m/s 702 mmHg 61%
    06:00 +17°C° 0 mm 4 m/s 703 mmHg 60%
    07:00 +17°C° 0 mm 4 m/s 703 mmHg 59%
    08:00 +18°C° 0 mm 3 m/s 704 mmHg 58%
    09:00 +18°C° 0.1 mm 3 m/s 704 mmHg 61%
    10:00 +18°C° 0.1 mm 3 m/s 704 mmHg 63%
    11:00 +18°C° 0.1 mm 3 m/s 705 mmHg 65%
    12:00 +17°C° 0.2 mm 3 m/s 704 mmHg 68%
    13:00 +17°C° 0.2 mm 4 m/s 704 mmHg 71%
    14:00 +17°C° 0.2 mm 4 m/s 704 mmHg 74%
    15:00 +17°C° 0 mm 4 m/s 704 mmHg 72%
    16:00 +18°C° 0 mm 4 m/s 704 mmHg 69%
    17:00 +19°C° 0 mm 4 m/s 704 mmHg 66%
    18:00 +18°C° 0 mm 4 m/s 704 mmHg 70%
    19:00 +17°C° 0 mm 3 m/s 704 mmHg 73%
    20:00 +16°C° 0 mm 3 m/s 704 mmHg 77%
    21:00 +16°C° 0 mm 3 m/s 704 mmHg 77%
    22:00 +16°C° 0 mm 3 m/s 704 mmHg 77%
    23:00 +16°C° 0 mm 2 m/s 705 mmHg 78%

    27 Martie, Miercuri

    Timp Temperatura Precipitaţii Vânt Presiune Umiditate
    00:00 +15°C° 0 mm 2 m/s 704 mmHg 79%
    01:00 +15°C° 0 mm 2 m/s 704 mmHg 81%
    02:00 +15°C° 0 mm 2 m/s 704 mmHg 82%
    03:00 +15°C° 0 mm 2 m/s 703 mmHg 81%
    04:00 +15°C° 0 mm 2 m/s 703 mmHg 80%
    05:00 +15°C° 0 mm 2 m/s 703 mmHg 79%
    06:00 +14°C° 0 mm 3 m/s 703 mmHg 76%
    07:00 +16°C° 0 mm 3 m/s 703 mmHg 73%
    08:00 +16°C° 0 mm 3 m/s 704 mmHg 70%
    09:00 +18°C° 0 mm 4 m/s 704 mmHg 63%
    10:00 +20°C° 0 mm 5 m/s 704 mmHg 55%
    11:00 +22°C° 0 mm 5 m/s 704 mmHg 48%
    12:00 +23°C° 0 mm 5 m/s 703 mmHg 47%
    13:00 +23°C° 0 mm 6 m/s 703 mmHg 46%
    14:00 +24°C° 0 mm 6 m/s 702 mmHg 45%
    15:00 +23°C° 0 mm 5 m/s 702 mmHg 46%
    16:00 +23°C° 0 mm 5 m/s 701 mmHg 46%
    17:00 +23°C° 0 mm 4 m/s 701 mmHg 47%
    18:00 +21°C° 0 mm 3 m/s 701 mmHg 55%
    19:00 +19°C° 0 mm 2 m/s 701 mmHg 62%
    20:00 +18°C° 0 mm 1 m/s 701 mmHg 70%
    21:00 +17°C° 0 mm 2 m/s 701 mmHg 70%
    22:00 +17°C° 0 mm 2 m/s 701 mmHg 69%
    23:00 +18°C° 0 mm 3 m/s 701 mmHg 69%
    Arată mai mult